Regional Weather Roundup
Issued by NWS State College, PA

Home | Current Version | Previous Version | Graphics & Text | Print | Product List | Glossary On
Versions: 1 2 3 4 5 6 7 8 9 10 11 12 13 14 15 16 17 18 19 20 21 22 23 24 25 26 27 28 29 30 31 32 33 34 35 36 37 38 39 40 41 42 43 44 45 46 47 48 49 50
751
ASUS41 KCTP 101910
RWRCTP

REGIONAL WEATHER ROUNDUP
NATIONAL WEATHER SERVICE STATE COLLEGE PA
200 PM EST WED FEB 10 2016

Note: "fair" indicates few or no clouds below 12,000 feet with no
significant weather and/or obstructions to visibility.

* = STATION THAT DOES NOT REPORT PRECIPITATION /E.G. RAIN...SNOW...ETC/
    THUNDER OR FOG.

PAZ002>004-007>009-013>016-020>023-029>032-102000-
WESTERN PENNSYLVANIA

CITY           SKY/WX    TMP DP  RH WIND       PRES   REMARKS
ERIE           LGT SNOW  23  13  65 W18G29    29.74R WCI   9
MEADVILLE      LGT SNOW  21  16  81 SW15G23   29.70S WCI   8
FRANKLIN*      CLOUDY    19  10  68 W10G21    29.73S WCI   8
NEW CASTLE     LGT SNOW  22  15  75 SW9G18    29.79S WCI  12
BEAVER COUNTY  LGT SNOW  21  14  73 SW13      29.79F WCI   9
BUTLER*        CLOUDY    19  12  73 W10G17    29.81F WCI   8
PITTSBURGH INT LGT SNOW  19  13  77 W10G17    29.80S WCI   7
PITTSBURGH     LGT SNOW  21  12  68 SW16      29.80F WCI   7
INDIANA*       HAZE      19  14  79 W16       29.78S VSB 3/4 WCI   5
LATROBE        LGT SNOW  19  12  73 W12G23    29.81S WCI   7
WASHINGTON CO* CLOUDY    19  10  68 SW16G23   29.82S WCI   5
$$

PAZ004>006-010>012-017>019-024>028-033>037-041-042-045-046-049>053-102000-
CENTRAL PENNSYLVANIA

CITY           SKY/WX    TMP DP  RH WIND       PRES   REMARKS
BRADFORD       LGT SNOW  20  13  74 W8G16     29.60S VSB 1   WCI  10
DUBOIS         LGT SNOW  18  13  80 W17       29.67S VSB 1   WCI   3
CLEARFIELD     LGT SNOW  21  13  71 SW15G28   29.69S WCI   8
JOHNSTOWN      LGT SNOW  16   6  65 W18G24    29.68R WCI   0
ALTOONA        PTSUNNY   23  10  57 W16       29.71F WCI  10
STATE COLLEGE  FLURRIES  25  16  68 W21G28    29.70S WCI  10
WILLIAMSPORT   CLOUDY    30  18  60 W15G24    29.68S
SELINSGROVE    CLOUDY    31  16  54 VRB6      29.72S
FT INDIANTOWN  NOT AVBL
CAPITAL CITY   CLOUDY    31  14  49 W13       29.73F
HARRISBURG     CLOUDY    31  17  56 NW13      29.73S
YORK           CLOUDY    31  15  52 W12G20    29.73F
$$

PAZ038>040-043-044-047-048-054-055-060>062-067>071-102000-
EASTERN PENNSYLVANIA

CITY           SKY/WX    TMP DP  RH WIND       PRES   REMARKS
SCRANTON       CLOUDY    30  19  63 SW17G24   29.60S
MOUNT POCONO   CLOUDY    28  17  63 W18G26    29.54S
ALLENTOWN      CLOUDY    33  17  51 W16G23    29.67R
QUAKERTOWN*    NOT AVBL
READING        CLOUDY    33  17  51 W14       29.69S
LANCASTER      CLOUDY    31  19  61 W16       29.71S
COATESVILLE    MOCLDY    30  21  69 W17G25    29.70F
POTTSTOWN      CLOUDY    32  18  56 W13G23    29.70S
BLUE BELL        N/A     32  19  59 W9        29.68S
DOYLESTOWN     CLOUDY    32  17  54 W12G23    29.66S
WILLOW GROVE   NOT AVBL
NORTH PHILA    CLOUDY    35  20  54 W18       29.71R
PHILADELPHIA   CLOUDY    35  18  49 W20       29.71F
$$




USA.gov is the U.S. government's official web portal to all federal, state and local government web resources and services.